Location: Unspecified
(0.0000°N, 0.0000°E)
Time: 13:39:20
(UTC+00:00)

A-11 Canister half - Pass Details

Date: 25 November 2019
Orbit: 1515 x 1685 km, 47.2° (Epoch: 08 December)

Event Time Altitude Azimuth Distance (km) Brightness Sun altitude
Exits shadow 00:58:01 12° 130° (SE) 3,632 11.2 -63.0°
Drops below altitude 10° 00:58:26 10° 131° (SE) 3,761 11.3 -62.9°
Sets 01:01:30 0° 133° (SE) 4,726 12.0 -62.4°
